Weather in Mount Gambier

Australia     37°49′13″S   140°46′26″E
temp.,
°C
wind,
m/s
gust,
m/s
humid.,
%
clouds,
%
prec.,
mm/h
press.,
hPa
HPBL,
m
18 april, sun
sun1800:30+11wnw149447 0.1 102582
03:30+11nw129532 0.1 102434
06:30+11nnw2493100 0.1 1024100
09:30+16w257435 0.4 1023802
12:30+19w355688 0.2 10221435
15:30+17wsw466464 0.4 10211236
18:30+15w366584 0.0 1021956
21:30+11nnw248999 0.1 1020103
19 april, mon
mon1900:30+12nnw2590100 0.3 1019174
03:30+11nnw269817 0.4 1017130
06:30+10nnw269725 0.1 1017124
09:30+17wnw39668 0.2 10171280
12:30+18nw385588 0.1 10151572
15:30+20wnw41048100 0.2 10131898
18:30+15nw41072100 0.1 1013873
21:30+14nw310815 0.3 1013838
20 april, tue
tue2000:30+13nw311900 0.0 1012669
03:30+13nw310865 0.1 1011643
06:30+12ssw3893100 1.8 1012482
09:30+11ssw3989100 6.8 1015836
12:30+12ssw4758100 0.1 10161716
15:30+12ssw3749100 0.1 10171967
18:30+8ssw126425 0.0 101943
21:30+7wsw11695 0.0 102010
21 april, wed
wed2100:30+6nw117126 0.0 102012
03:30+9nw1164100 0.0 101922
06:30+8nnw2467100 0.0 1019120
09:30+10nnw2559100 0.0 1019291
12:30+13nw3751100 0.0 10171560
15:30+13wnw3860100 0.1 10161333
18:30+10wnw277899 0.1 1016254
21:30+10nw258394 0.2 1016113
22 april, thu
thu2200:30+9nnw239051 0.1 101558
03:30+12wnw2983100 0.1 1014661
06:30+12w398193 0.3 1015468
09:30+14w3871100 0.4 10161253
12:30+15w4969100 0.2 10151299
15:30+15wsw4972100 0.6 10151206
18:30+13wsw397661 0.3 1017668
21:30+13wsw288069 0.5 1018387